Weather History for KCDH - October, 2014

Change the Weather History Date:

Thursday, October 30, 2014

  Actual Average (KELD) Record (KELD)
Temperature  
Mean Temperature 57 °F 59 °F  
Max Temperature 75 °F 72 °F 90 °F (1937)
Min Temperature 39 °F 47 °F 24 °F (1917)
Degree Days  
Heating Degree Days 8 7  
Month to date heating degree days 114  
Since 1 July heating degree days 126  
Cooling Degree Days 0 1  
Month to date cooling degree days 82  
Year to date cooling degree days 2109  
Growing Degree Days 7 (Base 50)    
Moisture  
Dew Point 45 °F    
Average Humidity 74    
Maximum Humidity 100    
Minimum Humidity 29    
Precipitation  
Precipitation 0.00 in 0.17 in 2.02 in (1985)
Month to date precipitation 5.03  
Year to date precipitation 42.69  
Snow  
Snow 0.00 in - - ()
Month to date snowfall  
Since 1 July snowfall  
Since 1 September snowfall  
Snow Depth -    
Sea Level Pressure  
Sea Level Pressure 30.12 in    
Wind  
Wind Speed 1 mph (NE)    
Max Wind Speed 8 mph    
Max Gust Speed -    
Visibility 7 miles    
Events Fog    
T = Trace of Precipitation, MM = Missing Value Source: NWS Daily Summary

Daily Weather History Graph

Daily Weather History Graph

Search for Another Location

Airport or City:

Trip Planner

Search our weather history database for the weather conditions in past years. The results will help you decide how hot, cold, wet, or windy it might be!

Date:

Astronomy

Oct. 30, 2014 Rise Set
Actual Time 7:28 AM CDT 6:20 PM CDT
Civil Twilight 7:02 AM CDT 6:46 PM CDT
Nautical Twilight 6:33 AM CDT 7:15 PM CDT
Astronomical Twilight 6:04 AM CDT 7:44 PM CDT
Moon 1:31 PM CDT (10/30) No Moon Set
Length of Visible Light 11h 43m
Length of Day
10h 52m
Waxing Crescent, 45% of the Moon is Illuminated
Oct 30
Waxing Crescent
Oct 30
First Quarter
Nov 6
Full
Nov 14
Last Quarter
Nov 22
New

Hourly Weather History & Observations

Time (CDT) Temp. Dew Point Humidity Pressure Visibility Wind Dir Wind Speed Gust Speed Precip Events Conditions
12:15 AM 46.4 °F 44.6 °F 93% 30.16 in 0.2 mi Calm Calm - N/A Fog Fog
12:35 AM 44.6 °F 42.8 °F 93% 30.16 in 1.5 mi North - - N/A   Clear
12:55 AM 44.6 °F 42.8 °F 93% 30.16 in 0.5 mi Calm Calm - N/A Fog Fog
1:15 AM 44.6 °F 42.8 °F 93% 30.16 in 0.8 mi Calm Calm - N/A   Mostly Cloudy
1:35 AM 44.6 °F 42.8 °F 93% 30.16 in 0.2 mi Calm Calm - N/A Fog Fog
1:55 AM 44.6 °F 42.8 °F 93% 30.16 in 0.2 mi Calm Calm - N/A Fog Fog
2:15 AM 44.6 °F 42.8 °F 93% 30.16 in 0.2 mi Calm Calm - N/A Fog Fog
2:35 AM 44.6 °F 41.0 °F 87% 30.15 in 0.8 mi Calm Calm - N/A   Mostly Cloudy
2:55 AM 42.8 °F 41.0 °F 93% 30.15 in 0.5 mi Calm Calm - N/A Fog Fog
3:15 AM 42.8 °F 41.0 °F 93% 30.15 in 0.5 mi Calm Calm - N/A Fog Fog
3:35 AM 41.0 °F 39.2 °F 93% 30.15 in 0.5 mi Calm Calm - N/A Fog Fog
3:55 AM 42.8 °F 41.0 °F 93% 30.15 in 1.5 mi Calm Calm - N/A   Clear
4:15 AM 41.0 °F 39.2 °F 93% 30.15 in 1.5 mi Calm Calm - N/A   Clear
4:35 AM 41.0 °F 39.2 °F 93% 30.15 in 2.0 mi Calm Calm - N/A   Clear
4:55 AM 41.0 °F 39.2 °F 93% 30.16 in 0.5 mi Calm Calm - N/A Fog Fog
5:15 AM 41.0 °F 39.2 °F 93% 30.16 in 4.0 mi Calm Calm - N/A   Clear
5:35 AM 41.0 °F 39.2 °F 93% 30.16 in 0.8 mi Calm Calm - N/A   Mist
5:55 AM 41.0 °F 39.2 °F 93% 30.16 in 3.0 mi Calm Calm - N/A   Clear
6:15 AM 41.0 °F 39.2 °F 93% 30.16 in 10.0 mi Calm Calm - N/A   Clear
6:35 AM 41.0 °F 39.2 °F 93% 30.17 in 1.5 mi Calm Calm - N/A   Clear
6:55 AM 41.0 °F 39.2 °F 93% 30.17 in 1.0 mi Calm Calm - N/A   Clear
7:15 AM 41.0 °F 39.2 °F 93% 30.18 in 7.0 mi Calm Calm - N/A   Clear
7:35 AM 39.2 °F 39.2 °F 100% 30.18 in 10.0 mi Calm Calm - N/A   Clear
7:55 AM 41.0 °F 39.2 °F 93% 30.18 in 9.0 mi Calm Calm - N/A   Clear
8:15 AM 42.8 °F 41.0 °F 93% 30.17 in 7.0 mi Calm Calm - N/A   Clear
8:35 AM 46.4 °F 44.6 °F 93% 30.17 in 10.0 mi Calm Calm - N/A   Clear
8:55 AM 48.2 °F 46.4 °F 93% 30.17 in 10.0 mi Calm Calm - N/A   Clear
9:15 AM 50.0 °F 46.4 °F 87% 30.18 in 10.0 mi Calm Calm - N/A   Clear
9:35 AM 53.6 °F 48.2 °F 82% 30.18 in 10.0 mi Calm Calm - N/A   Clear
9:55 AM 55.4 °F 50.0 °F 82% 30.18 in 10.0 mi Calm Calm - N/A   Clear
10:15 AM 57.2 °F 50.0 °F 77% 30.18 in 10.0 mi Calm Calm - N/A   Clear
10:35 AM 62.6 °F 50.0 °F 63% 30.18 in 10.0 mi Calm Calm - N/A   Clear
10:55 AM 64.4 °F 48.2 °F 56% 30.18 in 10.0 mi Calm Calm - N/A   Clear
11:15 AM 66.2 °F 50.0 °F 56% 30.18 in 10.0 mi Calm Calm - N/A   Clear
11:35 AM 68.0 °F 48.2 °F 49% 30.17 in 10.0 mi Calm Calm - N/A   Clear
11:55 AM 69.8 °F 48.2 °F 46% 30.16 in 10.0 mi Calm Calm - N/A   Clear
12:15 PM 71.6 °F 48.2 °F 43% 30.16 in 10.0 mi Calm Calm - N/A   Clear
12:35 PM 71.6 °F 46.4 °F 41% 30.15 in 10.0 mi Calm Calm - N/A   Clear
12:55 PM 73.4 °F 44.6 °F 36% 30.14 in 10.0 mi NE 3.5 mph - N/A   Clear
1:15 PM 73.4 °F 46.4 °F 38% 30.13 in 10.0 mi Calm Calm - N/A   Clear
1:35 PM 73.4 °F 46.4 °F 38% 30.12 in 10.0 mi NE 4.6 mph - N/A   Clear
1:55 PM 75.2 °F 41.0 °F 29% 30.11 in 10.0 mi Calm Calm - N/A   Clear
2:15 PM 75.2 °F 42.8 °F 31% 30.09 in 10.0 mi NE 3.5 mph - N/A   Clear
2:35 PM 75.2 °F 44.6 °F 34% 30.08 in 10.0 mi NNE 3.5 mph - N/A   Clear
2:55 PM 75.2 °F 42.8 °F 31% 30.07 in 10.0 mi NE 6.9 mph - N/A   Clear
3:15 PM 75.2 °F 41.0 °F 29% 30.07 in 10.0 mi NNE 8.1 mph - N/A   Clear
3:35 PM 75.2 °F 42.8 °F 31% 30.07 in 10.0 mi NE 4.6 mph - N/A   Clear
3:55 PM 75.2 °F 42.8 °F 31% 30.07 in 10.0 mi NE 6.9 mph - N/A   Clear
4:15 PM 73.4 °F 42.8 °F 33% 30.07 in 10.0 mi NE 6.9 mph - N/A   Clear
4:35 PM 73.4 °F 42.8 °F 33% 30.06 in 10.0 mi NE 4.6 mph - N/A   Clear
4:55 PM 73.4 °F 44.6 °F 36% 30.06 in 10.0 mi NE 5.8 mph - N/A   Clear
5:15 PM 73.4 °F 46.4 °F 38% 30.05 in 10.0 mi NE 4.6 mph - N/A   Clear
5:35 PM 69.8 °F 48.2 °F 46% 30.05 in 10.0 mi Calm Calm - N/A   Scattered Clouds
6:15 PM 66.2 °F 50.0 °F 56% 30.05 in 10.0 mi Calm Calm - N/A   Mostly Cloudy
6:35 PM 64.4 °F 51.8 °F 64% 30.05 in 10.0 mi Calm Calm - N/A   Scattered Clouds
6:55 PM 59.0 °F 51.8 °F 77% 30.06 in 10.0 mi Calm Calm - N/A   Partly Cloudy
7:15 PM 57.2 °F 51.8 °F 82% 30.06 in 10.0 mi Calm Calm - N/A   Clear
7:35 PM 55.4 °F 51.8 °F 88% 30.06 in 10.0 mi Calm Calm - N/A   Clear
7:55 PM 53.6 °F 50.0 °F 88% 30.06 in 10.0 mi Calm Calm - N/A   Clear
8:15 PM 53.6 °F 50.0 °F 88% 30.06 in 10.0 mi Calm Calm - N/A   Clear
8:35 PM 53.6 °F 50.0 °F 88% 30.06 in 10.0 mi Calm Calm - N/A   Clear
8:55 PM 51.8 °F 50.0 °F 94% 30.06 in 10.0 mi Calm Calm - N/A   Clear
9:15 PM 51.8 °F 50.0 °F 94% 30.06 in 7.0 mi Calm Calm - N/A   Clear
9:35 PM 51.8 °F 50.0 °F 94% 30.06 in 10.0 mi Calm Calm - N/A   Clear
9:55 PM 50.0 °F 48.2 °F 94% 30.07 in 3.0 mi Calm Calm - N/A   Clear
10:15 PM 50.0 °F 48.2 °F 94% 30.07 in 9.0 mi Calm Calm - N/A   Clear
10:35 PM 50.0 °F 48.2 °F 94% 30.07 in 5.0 mi Calm Calm - N/A   Clear
10:55 PM 50.0 °F 48.2 °F 94% 30.07 in 3.0 mi Calm Calm - N/A   Clear
11:15 PM 50.0 °F 48.2 °F 94% 30.07 in 1.2 mi Calm Calm - N/A   Clear
11:35 PM 48.2 °F 46.4 °F 93% 30.07 in 1.2 mi Calm Calm - N/A   Clear
11:55 PM 48.2 °F 46.4 °F 93% 30.07 in 2.5 mi Calm Calm - N/A   Clear